Weather History for KSGH - March, 2013

Change the Weather History Date:

Wednesday, March 13, 2013

  Actual Average (KDAY) Record (KDAY)
Temperature  
Mean Temperature 27 °F 39 °F  
Max Temperature 30 °F 48 °F 77 °F (1990)
Min Temperature 22 °F 30 °F 5 °F (1960)
Degree Days  
Heating Degree Days 38 26  
Month to date heating degree days 364  
Since 1 July heating degree days 4639  
Cooling Degree Days 0 0  
Month to date cooling degree days 0  
Year to date cooling degree days 0  
Moisture  
Dew Point 22 °F    
Average Humidity 83    
Maximum Humidity 100    
Minimum Humidity 66    
Precipitation  
Precipitation 0.00 in 0.11 in 3.10 in (1907)
Month to date precipitation 1.24  
Year to date precipitation 6.19  
Snow  
Snow 0.00 in 0.10 in 6.50 in (1958)
Month to date snowfall 1.9  
Since 1 July snowfall 21.2  
Snow Depth -    
Sea Level Pressure  
Sea Level Pressure 30.11 in    
Wind  
Wind Speed 14 mph (West)    
Max Wind Speed 23 mph    
Max Gust Speed 32 mph    
Visibility 6 miles    
Events Snow    
T = Trace of Precipitation, MM = Missing Value Source: NWS Daily Summary

Daily Weather History Graph

Daily Weather History Graph

Search for Another Location

Airport or City:

Trip Planner

Search our weather history database for the weather conditions in past years. The results will help you decide how hot, cold, wet, or windy it might be!

Date:

Astronomy

Mar. 13, 2013 Rise Set
Actual Time 7:49 AM EDT 7:40 PM EDT
Civil Twilight 7:22 AM EDT 8:07 PM EDT
Nautical Twilight 6:51 AM EDT 8:38 PM EDT
Astronomical Twilight 6:19 AM EDT 9:10 PM EDT
Moon 8:28 AM EDT (3/13) 9:55 PM EDT (3/13)
Length of Visible Light 12h 44m
Length of Day
11h 50m
Waxing Crescent, 4% of the Moon is Illuminated
Mar 13
Waxing Crescent
Mar 19
First Quarter
Mar 27
Full
Apr 3
Last Quarter
Apr 10
New

Hourly Weather History & Observations

Time (EDT) Temp. Windchill Dew Point Humidity Pressure Visibility Wind Dir Wind Speed Gust Speed Precip Events Conditions
12:03 AM 30.2 °F 20.8 °F 28.4 °F 93% 30.01 in 2.0 mi West 11.5 mph - 0.00 in Snow Light Snow
12:22 AM 30.2 °F 23.4 °F 28.4 °F 93% 30.01 in 6.0 mi WSW 6.9 mph - 0.00 in Snow Light Snow
12:29 AM 30.2 °F 23.4 °F 28.4 °F 93% 30.01 in 6.0 mi WSW 6.9 mph - 0.00 in   Mostly Cloudy
12:47 AM 30.2 °F 21.3 °F 28.4 °F 93% 30.01 in 6.0 mi WSW 10.4 mph - 0.00 in   Mostly Cloudy
12:56 AM 30.0 °F 19.5 °F 29.1 °F 96% 30.04 in 7.0 mi WSW 13.8 mph - 0.00 in   Overcast
1:56 AM 29.1 °F 20.6 °F 27.1 °F 92% 30.04 in 8.0 mi WSW 9.2 mph - N/A   Clear
2:56 AM 28.0 °F 19.3 °F 27.1 °F 96% 30.03 in 7.0 mi WSW 9.2 mph - N/A   Partly Cloudy
3:44 AM 28.4 °F 18.5 °F 26.6 °F 93% 29.98 in 7.0 mi SW 11.5 mph - N/A   Mostly Cloudy
3:56 AM 29.1 °F 18.4 °F 27.1 °F 92% 30.01 in 7.0 mi SW 13.8 mph - 0.00 in   Mostly Cloudy
4:56 AM 29.1 °F 18.9 °F 25.2 °F 85% 30.00 in 8.0 mi West 12.7 mph - 0.00 in Snow Light Snow
5:19 AM 28.4 °F 18.0 °F 24.8 °F 86% 29.98 in 5.0 mi West 12.7 mph - 0.00 in Snow Light Snow
5:31 AM 28.4 °F 16.6 °F 24.8 °F 86% 29.98 in 2.5 mi West 16.1 mph - 0.00 in Snow Light Snow
5:37 AM 28.4 °F 17.5 °F 24.8 °F 86% 29.98 in 1.5 mi West 13.8 mph - 0.00 in Snow Light Snow
5:56 AM 27.1 °F 17.5 °F 26.1 °F 96% 30.01 in 2.5 mi West 10.4 mph - 0.00 in Snow Light Snow
6:04 AM 26.6 °F 16.2 °F 26.6 °F 100% 29.98 in 3.0 mi West 11.5 mph - 0.00 in Snow Light Snow
6:19 AM 26.6 °F 14.3 °F 24.8 °F 93% 29.99 in 6.0 mi WNW 16.1 mph - 0.00 in Snow Light Snow
6:31 AM 26.6 °F 13.1 °F 23.0 °F 86% 29.99 in 6.0 mi WNW 19.6 mph - 0.00 in Snow Light Snow
6:56 AM 26.1 °F 14.5 °F 22.1 °F 85% 30.03 in 9.0 mi WNW 13.8 mph - 0.00 in   Overcast
7:28 AM 24.8 °F 11.5 °F 19.4 °F 80% 30.02 in 8.0 mi WNW 17.3 mph - 0.00 in   Mostly Cloudy
7:41 AM 24.8 °F 10.3 °F 19.4 °F 80% 30.02 in 9.0 mi WNW 20.7 mph 25.3 mph 0.00 in   Overcast
7:56 AM 25.2 °F 12.9 °F 19.0 °F 78% 30.06 in 8.0 mi WNW 15.0 mph - 0.00 in   Overcast
8:56 AM 24.1 °F 10.1 °F 19.0 °F 81% 30.08 in 7.0 mi West 18.4 mph 21.9 mph N/A   Scattered Clouds
9:38 AM 24.8 °F 11.5 °F 19.4 °F 80% 30.06 in 8.0 mi West 17.3 mph 24.2 mph 0.00 in   Mostly Cloudy
9:56 AM 25.2 °F 10.8 °F 19.0 °F 78% 30.11 in 7.0 mi West 20.7 mph 25.3 mph 0.00 in Snow Light Snow
10:56 AM 26.1 °F 11.6 °F 19.0 °F 75% 30.13 in 5.0 mi West 21.9 mph 32.2 mph 0.00 in Snow Light Snow
11:56 AM 27.1 °F 14.9 °F 20.1 °F 75% 30.15 in 6.0 mi West 16.1 mph 23.0 mph 0.00 in Snow Light Snow
12:12 PM 28.4 °F 15.8 °F 21.2 °F 74% 30.12 in 8.0 mi West 18.4 mph - 0.00 in   Mostly Cloudy
12:45 PM 26.6 °F 12.7 °F 21.2 °F 80% 30.13 in 2.0 mi WNW 20.7 mph 28.8 mph 0.00 in Snow Light Snow
12:47 PM 26.6 °F 12.0 °F 21.2 °F 80% 30.13 in 1.2 mi WNW 23.0 mph 28.8 mph 0.00 in Snow Light Snow
12:49 PM 24.8 °F 10.0 °F 21.2 °F 86% 30.13 in 0.8 mi WNW 21.9 mph 28.8 mph 0.00 in Snow Light Snow
12:56 PM 25.2 °F 13.3 °F 21.0 °F 84% 30.17 in 1.0 mi WNW 13.8 mph - 0.00 in Snow Light Snow
12:59 PM 26.6 °F 15.2 °F 21.2 °F 80% 30.13 in 1.8 mi WNW 13.8 mph - 0.00 in Snow Light Snow
1:01 PM 26.6 °F 14.3 °F 21.2 °F 80% 30.13 in 3.0 mi WNW 16.1 mph - 0.00 in Snow Light Snow
1:17 PM 26.6 °F 13.8 °F 21.2 °F 80% 30.14 in 7.0 mi WNW 17.3 mph 24.2 mph 0.00 in Snow Light Snow
1:23 PM 26.6 °F 13.4 °F 19.4 °F 74% 30.14 in 1.8 mi West 18.4 mph 29.9 mph 0.00 in Snow Light Snow
1:28 PM 26.6 °F 13.8 °F 21.2 °F 80% 30.14 in 1.2 mi WNW 17.3 mph - 0.00 in Snow Light Snow
1:34 PM 26.6 °F 15.7 °F 21.2 °F 80% 30.14 in 2.0 mi WNW 12.7 mph - 0.00 in Snow Light Snow
1:44 PM 28.4 °F 16.6 °F 23.0 °F 80% 30.14 in 7.0 mi West 16.1 mph - 0.00 in   Overcast
1:56 PM 26.1 °F 12.7 °F 21.0 °F 81% 30.19 in 1.8 mi NW 18.4 mph 32.2 mph 0.00 in Snow Light Snow
2:05 PM 26.6 °F 14.7 °F 21.2 °F 80% 30.14 in 3.0 mi WNW 15.0 mph - 0.00 in Snow Light Snow
2:14 PM 28.4 °F 17.5 °F 21.2 °F 74% 30.14 in 8.0 mi WNW 13.8 mph - 0.00 in   Mostly Cloudy
2:56 PM 29.1 °F 16.0 °F 23.0 °F 78% 30.19 in 7.0 mi WNW 20.7 mph 31.1 mph 0.00 in Snow Light Snow
3:56 PM 27.1 °F 13.1 °F 21.0 °F 78% 30.21 in 5.0 mi WNW 21.9 mph 28.8 mph 0.00 in Snow Light Snow
4:56 PM 27.1 °F 14.5 °F 18.1 °F 69% 30.23 in 9.0 mi WNW 17.3 mph 23.0 mph 0.00 in   Overcast
5:56 PM 27.1 °F 13.8 °F 17.1 °F 66% 30.25 in 8.0 mi WNW 19.6 mph 25.3 mph 0.00 in Snow Light Snow
6:56 PM 26.1 °F 14.0 °F 18.1 °F 72% 30.26 in 8.0 mi WNW 15.0 mph - 0.00 in   Overcast
7:56 PM 26.1 °F 14.0 °F 19.0 °F 75% 30.28 in 8.0 mi NW 15.0 mph - 0.00 in Snow Light Snow
8:56 PM 25.2 °F 12.9 °F 20.1 °F 81% 30.30 in 8.0 mi WNW 15.0 mph - 0.00 in Snow Light Snow
9:56 PM 25.2 °F 15.1 °F 19.0 °F 78% 30.30 in 9.0 mi WNW 10.4 mph - 0.00 in   Clear
10:56 PM 24.1 °F 15.2 °F 18.1 °F 78% 30.31 in 9.0 mi West 8.1 mph - N/A   Clear
11:56 PM 22.1 °F 14.7 °F 18.1 °F 85% 30.32 in 9.0 mi West 5.8 mph - N/A   Clear